Precipitable_Water
0.63 0.61 0.58 0.57 0.56 0.54 0.52 0.52 0.54 0.54 0.56 0.57 0.58 0.55 0.51 0.41 0.39 0.33 0.25 0.34 0.36 0.31 0.33 0.29 0.33 0.37 0.40 0.41 0.46 0.50 0.33 0.30 0.31 0.33 0.34 0.43 0.40 0.48 0.52 0.47 0.50 0.55 0.58 0.67 0.76
0.60 0.57 0.57 0.56 0.54 0.52 0.51 0.51 0.56 0.59 0.58 0.57 0.56 0.53 0.47 0.44 0.38 0.24 0.34 0.34 0.33 0.33 0.30 0.26 0.24 0.31 0.29 0.33 0.39 0.44 0.38 0.36 0.40 0.39 0.40 0.41 0.45 0.44 0.46 0.47 0.50 0.58 0.68 0.74 0.77
0.56 0.56 0.55 0.54 0.53 0.52 0.51 0.54 0.57 0.60 0.58 0.57 0.54 0.51 0.45 0.46 0.30 0.25 0.37 0.34 0.33 0.33 0.28 0.26 0.26 0.27 0.25 0.28 0.30 0.40 0.35 0.37 0.40 0.38 0.40 0.44 0.45 0.51 0.50 0.49 0.46 0.47 0.59 0.72 0.76
0.54 0.54 0.53 0.52 0.52 0.51 0.53 0.55 0.56 0.59 0.59 0.57 0.53 0.50 0.42 0.41 0.18 0.30 0.35 0.35 0.32 0.29 0.25 0.22 0.22 0.22 0.22 0.20 0.23 0.25 0.30 0.33 0.37 0.40 0.39 0.37 0.42 0.43 0.45 0.47 0.48 0.48 0.58 0.68 0.73
0.54 0.53 0.52 0.52 0.50 0.52 0.55 0.58 0.62 0.62 0.62 0.59 0.55 0.49 0.39 0.26 0.23 0.33 0.34 0.32 0.31 0.27 0.22 0.20 0.18 0.18 0.18 0.18 0.20 0.21 0.19 0.23 0.27 0.32 0.36 0.39 0.39 0.40 0.40 0.44 0.45 0.45 0.55 0.58 0.65
0.54 0.53 0.52 0.50 0.52 0.54 0.57 0.61 0.60 0.60 0.61 0.62 0.59 0.49 0.34 0.20 0.33 0.33 0.32 0.30 0.28 0.26 0.22 0.21 0.17 0.16 0.14 0.14 0.18 0.19 0.22 0.24 0.27 0.26 0.24 0.27 0.30 0.34 0.35 0.39 0.36 0.34 0.34 0.39 0.54
0.56 0.56 0.55 0.53 0.55 0.55 0.60 0.59 0.58 0.57 0.57 0.61 0.58 0.48 0.31 0.27 0.37 0.33 0.32 0.28 0.28 0.26 0.22 0.23 0.21 0.17 0.15 0.12 0.20 0.24 0.19 0.21 0.24 0.25 0.24 0.29 0.25 0.25 0.33 0.36 0.34 0.34 0.35 0.36 0.39
0.57 0.56 0.53 0.55 0.53 0.57 0.55 0.53 0.56 0.58 0.60 0.62 0.57 0.52 0.29 0.40 0.40 0.36 0.33 0.30 0.30 0.28 0.26 0.26 0.26 0.19 0.17 0.20 0.21 0.22 0.23 0.20 0.19 0.23 0.24 0.23 0.24 0.29 0.34 0.34 0.32 0.34 0.37 0.38 0.39
0.55 0.54 0.55 0.56 0.54 0.55 0.52 0.51 0.55 0.61 0.64 0.62 0.53 0.45 0.28 0.41 0.37 0.38 0.35 0.30 0.30 0.29 0.28 0.27 0.27 0.23 0.21 0.20 0.18 0.19 0.19 0.17 0.17 0.19 0.19 0.21 0.25 0.28 0.33 0.32 0.29 0.31 0.35 0.36 0.39
0.53 0.52 0.53 0.55 0.56 0.55 0.54 0.57 0.54 0.56 0.57 0.56 0.44 0.32 0.33 0.33 0.37 0.34 0.34 0.32 0.30 0.28 0.26 0.26 0.24 0.22 0.19 0.18 0.16 0.16 0.15 0.15 0.16 0.21 0.23 0.22 0.23 0.29 0.32 0.30 0.31 0.32 0.33 0.33 0.35
0.53 0.50 0.51 0.53 0.57 0.53 0.52 0.48 0.40 0.36 0.40 0.36 0.33 0.31 0.32 0.36 0.36 0.30 0.30 0.29 0.28 0.24 0.20 0.22 0.20 0.18 0.19 0.19 0.19 0.17 0.16 0.16 0.18 0.21 0.23 0.24 0.25 0.28 0.32 0.32 0.31 0.32 0.32 0.32 0.34
0.50 0.49 0.49 0.50 0.52 0.53 0.51 0.38 0.42 0.44 0.27 0.37 0.36 0.33 0.35 0.35 0.26 0.28 0.32 0.25 0.22 0.19 0.21 0.20 0.20 0.22 0.20 0.20 0.19 0.18 0.18 0.17 0.20 0.22 0.23 0.26 0.26 0.30 0.32 0.31 0.32 0.32 0.32 0.32 0.35
0.48 0.45 0.45 0.45 0.43 0.46 0.42 0.41 0.54 0.55 0.28 0.28 0.33 0.32 0.33 0.34 0.27 0.27 0.31 0.26 0.24 0.22 0.21 0.20 0.23 0.22 0.19 0.18 0.17 0.19 0.18 0.18 0.18 0.21 0.23 0.24 0.23 0.28 0.32 0.33 0.33 0.33 0.34 0.35 0.34
0.49 0.43 0.40 0.39 0.31 0.35 0.35 0.48 0.56 0.54 0.22 0.22 0.27 0.30 0.33 0.34 0.26 0.34 0.35 0.29 0.24 0.21 0.20 0.21 0.23 0.20 0.20 0.19 0.20 0.18 0.22 0.19 0.19 0.17 0.17 0.24 0.17 0.27 0.30 0.28 0.29 0.30 0.32 0.33 0.35
0.49 0.48 0.41 0.38 0.31 0.31 0.37 0.51 0.57 0.46 0.14 0.27 0.29 0.41 0.33 0.29 0.30 0.30 0.38 0.29 0.23 0.22 0.21 0.22 0.21 0.20 0.20 0.22 0.22 0.23 0.24 0.22 0.22 0.19 0.19 0.19 0.16 0.26 0.31 0.26 0.28 0.29 0.31 0.34 0.36
0.51 0.48 0.44 0.38 0.40 0.41 0.46 0.56 0.48 0.18 0.13 0.23 0.30 0.29 0.28 0.28 0.29 0.32 0.35 0.36 0.31 0.24 0.25 0.24 0.27 0.26 0.25 0.26 0.26 0.28 0.24 0.24 0.23 0.21 0.15 0.19 0.19 0.24 0.25 0.30 0.29 0.30 0.31 0.33 0.36
0.47 0.45 0.43 0.40 0.33 0.47 0.52 0.44 0.18 0.12 0.24 0.22 0.25 0.27 0.26 0.25 0.27 0.28 0.29 0.26 0.25 0.19 0.20 0.22 0.22 0.26 0.27 0.24 0.28 0.25 0.22 0.19 0.19 0.18 0.18 0.25 0.19 0.26 0.33 0.33 0.31 0.30 0.32 0.34 0.36
0.45 0.44 0.39 0.40 0.47 0.50 0.47 0.22 0.12 0.20 0.21 0.27 0.27 0.25 0.23 0.26 0.25 0.26 0.25 0.24 0.29 0.26 0.20 0.17 0.18 0.24 0.27 0.25 0.23 0.23 0.22 0.18 0.14 0.14 0.19 0.25 0.17 0.26 0.35 0.34 0.34 0.33 0.34 0.36 0.37
0.45 0.39 0.35 0.38 0.47 0.47 0.29 0.15 0.20 0.21 0.24 0.23 0.25 0.20 0.22 0.25 0.25 0.25 0.25 0.25 0.28 0.29 0.21 0.18 0.19 0.25 0.26 0.27 0.25 0.25 0.19 0.25 0.17 0.17 0.15 0.17 0.25 0.32 0.33 0.32 0.33 0.33 0.35 0.35 0.37
0.39 0.34 0.31 0.40 0.44 0.36 0.24 0.21 0.22 0.29 0.29 0.27 0.21 0.23 0.21 0.24 0.23 0.24 0.25 0.30 0.28 0.33 0.35 0.27 0.18 0.24 0.25 0.26 0.26 0.23 0.26 0.18 0.22 0.14 0.14 0.19 0.20 0.23 0.29 0.28 0.32 0.33 0.34 0.36 0.38
0.36 0.29 0.34 0.43 0.43 0.29 0.20 0.24 0.26 0.32 0.33 0.28 0.25 0.23 0.25 0.23 0.26 0.25 0.26 0.30 0.33 0.32 0.34 0.30 0.22 0.23 0.23 0.22 0.23 0.23 0.21 0.21 0.20 0.19 0.14 0.13 0.21 0.35 0.34 0.32 0.31 0.33 0.34 0.36 0.38
0.31 0.24 0.37 0.41 0.28 0.28 0.25 0.28 0.31 0.30 0.34 0.31 0.30 0.28 0.26 0.25 0.26 0.26 0.26 0.28 0.36 0.37 0.27 0.30 0.25 0.18 0.22 0.29 0.28 0.26 0.24 0.23 0.17 0.17 0.21 0.18 0.17 0.33 0.39 0.37 0.35 0.34 0.35 0.37 0.39
0.30 0.30 0.40 0.36 0.23 0.23 0.27 0.26 0.29 0.28 0.28 0.28 0.26 0.28 0.29 0.25 0.23 0.29 0.29 0.34 0.36 0.35 0.29 0.32 0.24 0.16 0.19 0.25 0.28 0.25 0.25 0.25 0.24 0.24 0.17 0.16 0.19 0.35 0.39 0.38 0.37 0.35 0.36 0.37 0.39
0.34 0.28 0.34 0.35 0.34 0.28 0.25 0.25 0.25 0.32 0.29 0.29 0.27 0.29 0.27 0.25 0.27 0.27 0.28 0.31 0.35 0.33 0.35 0.32 0.24 0.19 0.16 0.21 0.26 0.21 0.23 0.25 0.23 0.17 0.16 0.18 0.23 0.29 0.33 0.34 0.35 0.34 0.35 0.36 0.37
0.36 0.31 0.35 0.29 0.30 0.31 0.30 0.29 0.26 0.25 0.30 0.30 0.27 0.26 0.25 0.21 0.22 0.22 0.25 0.25 0.28 0.28 0.27 0.26 0.19 0.22 0.20 0.22 0.21 0.18 0.18 0.19 0.16 0.17 0.14 0.16 0.18 0.24 0.29 0.31 0.31 0.31 0.30 0.31 0.33
0.37 0.35 0.37 0.34 0.35 0.32 0.31 0.29 0.28 0.28 0.28 0.25 0.25 0.25 0.24 0.21 0.21 0.20 0.20 0.20 0.20 0.21 0.19 0.20 0.16 0.16 0.13 0.15 0.15 0.13 0.14 0.14 0.14 0.13 0.13 0.13 0.13 0.21 0.25 0.26 0.25 0.27 0.28 0.29 0.32
0.46 0.47 0.41 0.36 0.34 0.30 0.29 0.30 0.29 0.29 0.29 0.29 0.26 0.23 0.22 0.23 0.25 0.25 0.24 0.23 0.22 0.19 0.17 0.15 0.15 0.13 0.10 0.13 0.12 0.10 0.12 0.14 0.15 0.16 0.15 0.13 0.19 0.22 0.21 0.23 0.25 0.27 0.28 0.30 0.33
Wind_Speed
7 7 6 6 6 6 5 5 4 4 3 2 1 1 2 2 2 3 3 2 3 4 4 4 4 4 4 5 3 1 1 3 3 3 3 4 5 5 6 4 2 3 3 4 4
7 7 6 6 6 6 5 4 4 4 3 1 1 0 1 2 2 3 2 2 3 4 4 3 4 4 4 4 4 2 3 2 1 2 2 3 3 5 6 6 3 3 4 5 6
7 7 7 6 6 5 5 4 4 3 3 1 1 1 1 1 1 2 2 2 3 4 4 4 3 3 3 4 4 3 3 2 2 1 0 2 1 3 6 4 7 9 8 7 8
7 7 7 7 6 6 5 4 4 3 2 1 1 1 1 2 1 1 2 2 3 4 3 3 2 3 2 3 4 2 3 1 1 0 1 0 3 1 2 6 9 10 10 10 11
7 7 7 7 6 5 5 5 4 3 1 0 1 2 2 2 2 1 2 3 3 3 3 3 3 2 2 2 2 2 2 2 1 2 2 3 2 2 4 7 8 9 9 11 12
7 7 7 6 6 6 6 5 4 3 2 2 2 2 2 1 0 2 2 3 4 3 3 3 3 3 2 2 2 2 2 2 2 1 0 1 2 3 7 7 7 7 8 9 10
7 7 7 6 5 5 5 4 3 2 3 3 3 2 0 1 1 2 3 3 4 3 3 3 3 3 2 1 1 1 2 2 3 1 1 2 4 4 6 6 6 7 8 8 8
6 6 5 5 5 4 3 3 2 3 4 4 3 2 1 2 2 3 3 3 4 4 3 4 4 2 3 2 2 3 4 3 3 2 2 4 2 5 7 6 7 8 8 8 8
5 5 4 3 3 3 1 1 2 3 3 4 4 4 2 3 4 4 5 5 4 4 4 4 4 4 3 4 4 5 4 3 1 3 4 5 1 5 7 7 7 8 9 9 9
4 4 3 3 2 1 1 2 2 2 3 4 5 4 4 4 5 5 5 6 6 6 6 5 5 6 5 6 5 4 4 4 5 3 2 1 2 4 6 7 7 8 9 9 9
5 4 3 3 1 1 2 2 2 2 2 3 3 2 3 4 5 6 7 7 7 7 7 6 7 6 4 6 6 5 6 6 4 4 4 3 3 5 6 7 7 8 9 10 10
5 4 3 2 2 2 3 3 2 2 0 2 3 3 5 6 7 7 8 9 8 8 7 7 8 5 6 6 7 7 8 6 6 7 9 6 5 6 6 7 8 8 9 11 11
6 5 4 2 2 1 1 2 3 3 4 3 4 5 7 8 7 8 9 8 8 8 8 9 5 7 8 8 9 8 10 8 10 8 10 9 10 8 7 7 8 8 9 10 10
6 6 5 4 3 3 3 3 4 5 6 5 6 6 7 7 7 8 8 8 8 8 8 8 7 8 8 8 9 11 8 9 9 10 11 12 9 10 8 7 8 9 9 9 10
6 6 5 4 3 4 4 5 5 5 7 5 5 7 6 7 7 7 9 9 8 8 9 7 8 8 10 8 10 8 9 11 12 14 16 14 14 8 9 8 8 8 8 8 8
6 6 6 5 4 4 4 4 4 6 5 5 6 7 7 7 8 8 8 8 8 10 9 8 9 10 9 9 10 10 12 13 14 15 15 16 14 10 10 8 8 7 7 7 7
7 7 6 6 5 5 5 5 7 8 6 5 7 8 7 8 8 9 8 7 8 10 9 8 9 10 11 12 11 12 13 12 12 11 11 10 13 10 9 9 9 8 7 7 7
7 7 6 6 6 6 6 7 9 7 7 8 9 9 10 10 9 10 10 9 9 11 13 12 11 11 11 12 13 13 14 14 14 13 10 11 14 11 11 10 10 9 8 8 8
7 7 7 7 7 8 9 10 8 8 9 9 10 11 10 11 12 11 10 11 11 12 13 13 12 11 11 13 14 11 14 13 17 20 18 13 12 14 13 12 11 11 10 10 10
8 8 8 9 9 10 11 9 10 10 11 11 12 12 11 10 11 12 11 11 12 12 13 12 15 13 13 14 14 16 15 15 14 15 17 13 15 13 14 14 13 13 12 12 12
9 9 9 10 10 11 12 11 11 11 12 12 12 12 12 12 13 12 11 12 13 14 14 15 15 12 14 14 14 14 15 15 16 17 16 18 11 15 14 15 15 14 14 14 14
10 10 11 11 11 11 11 11 12 12 12 13 13 13 14 14 14 14 14 13 14 15 14 14 16 17 15 15 17 17 17 17 16 14 16 16 18 17 15 15 16 15 15 16 17
11 11 11 12 12 11 11 11 12 13 13 14 13 14 14 14 15 15 14 14 15 15 15 15 15 16 15 15 14 14 14 15 17 17 20 20 16 16 16 16 17 17 18 18 19
12 11 11 12 13 11 11 12 12 13 13 14 14 15 14 14 15 15 15 15 16 16 17 17 18 19 19 16 16 16 16 16 18 17 20 21 18 16 17 18 18 19 20 20 20
12 12 12 11 12 12 12 13 13 14 14 15 15 16 16 16 16 15 16 15 15 16 17 17 18 18 20 19 20 21 21 21 21 22 21 21 20 21 20 20 21 21 22 23 23
13 13 12 12 13 12 15 14 14 14 15 15 17 15 16 15 15 15 16 16 16 16 16 16 17 18 20 17 20 22 22 21 22 22 24 24 25 20 20 22 22 23 23 24 25
13 13 15 14 14 16 15 14 14 13 15 15 14 14 13 14 15 15 16 16 16 17 16 17 17 17 17 16 19 22 20 19 18 18 20 21 18 20 22 23 24 26 26 27 28
Wind_Direction
317 321 329 338 343 344 343 346 350 349 340 329 338 24 31 37 57 102 66 46 15 3 5 4 10 20 21 28 33 46 203 133 161 176 190 203 207 216 226 216 242 273 295 273 240
310 313 318 326 334 338 339 341 346 351 347 324 236 121 56 59 104 79 44 22 10 10 5 5 15 14 29 31 35 24 98 90 91 176 184 192 199 217 231 225 236 257 282 264 248
306 304 307 312 318 324 327 328 332 339 344 343 196 186 124 114 150 40 19 4 360 356 6 13 16 17 33 25 26 28 83 126 120 91 274 209 205 258 258 235 286 285 291 267 259
304 301 300 298 301 308 312 315 318 322 336 356 189 185 171 158 47 24 5 354 350 347 347 358 358 12 22 31 32 47 59 37 151 202 292 276 272 138 306 283 284 281 282 269 265
308 303 297 294 293 296 300 302 301 298 286 218 155 162 157 166 60 6 341 336 341 340 349 342 347 351 3 24 28 36 45 23 350 280 260 259 284 260 330 306 299 292 283 278 269
307 305 303 294 288 290 295 292 284 272 234 194 159 149 175 178 347 336 321 323 335 330 341 340 335 329 354 351 324 30 31 49 47 66 14 223 339 264 326 313 318 311 303 293 281
306 304 297 296 290 294 289 281 265 238 200 181 172 164 200 110 295 331 328 321 328 325 326 334 323 298 306 302 308 176 125 87 44 54 103 142 38 354 328 325 331 329 325 308 297
315 314 306 295 298 293 287 268 231 198 186 186 187 229 284 246 295 326 314 320 316 318 317 316 317 300 290 294 243 248 243 237 10 300 287 272 339 341 331 328 331 329 328 321 305
325 326 321 311 308 297 269 222 190 191 196 203 228 264 248 261 284 309 311 304 306 305 305 300 294 292 264 250 227 233 272 265 260 320 277 271 272 331 329 332 335 335 333 328 316
350 345 335 326 321 291 205 173 171 190 216 238 249 248 253 273 286 297 302 300 298 296 288 283 276 271 260 250 283 235 249 259 282 314 300 315 299 327 336 338 339 337 336 333 327
0 347 345 348 325 214 169 172 228 232 289 282 265 255 260 274 281 296 296 290 290 285 283 284 274 272 289 284 289 274 273 273 287 282 292 284 299 318 325 334 337 339 339 337 332
357 353 345 339 330 255 246 267 252 232 155 298 271 272 277 281 282 295 294 287 284 283 281 273 276 284 278 274 272 275 274 265 283 278 275 265 286 302 314 325 330 332 337 337 334
348 346 334 319 314 299 270 253 234 259 263 289 288 290 284 287 289 300 299 288 288 281 283 285 290 273 270 264 264 264 275 275 285 267 274 263 266 267 292 307 318 327 329 335 338
336 335 326 300 291 282 278 261 253 275 258 285 281 289 285 285 289 298 302 291 277 287 282 283 275 270 263 264 271 272 277 275 267 268 283 253 289 260 270 293 309 316 320 326 332
327 331 324 307 287 285 281 267 265 278 272 292 292 292 291 290 291 300 299 284 290 287 277 279 267 265 266 281 277 285 276 274 274 273 281 260 275 264 259 281 295 308 316 323 330
307 318 307 295 299 288 281 268 268 274 283 282 292 297 280 300 296 293 295 294 286 280 274 279 269 269 281 275 277 274 274 274 276 273 273 261 256 259 266 266 275 290 302 313 325
293 299 302 291 281 283 269 265 272 285 282 292 294 295 291 293 292 300 302 312 292 281 261 265 268 271 274 272 273 270 274 276 267 266 277 277 265 282 275 274 270 273 283 294 308
286 287 296 292 280 272 264 270 275 292 295 291 292 288 286 291 289 287 278 278 299 288 279 276 264 272 280 278 286 272 281 281 284 288 288 270 272 273 268 266 262 265 270 278 291
283 280 287 288 277 272 269 267 292 291 286 285 284 282 282 283 287 280 291 287 292 296 283 282 268 274 280 278 279 274 273 283 280 273 277 267 275 271 261 258 256 261 265 272 279
282 277 287 286 277 271 272 281 279 283 284 282 281 288 282 285 279 279 281 292 286 288 284 286 277 276 277 276 276 275 283 275 267 277 276 267 272 276 249 251 253 257 264 269 275
279 278 288 283 278 274 276 280 276 281 281 287 284 283 286 284 285 281 289 288 289 285 283 285 274 273 275 278 286 276 273 272 277 274 279 283 278 291 259 253 256 260 265 269 274
279 277 290 282 276 281 277 278 278 277 281 284 284 287 285 286 283 279 280 287 291 285 284 286 282 276 281 282 279 277 280 276 274 275 272 277 279 284 275 262 261 263 267 271 274
279 282 286 281 278 277 272 277 281 275 281 282 281 285 283 281 282 281 282 284 289 286 284 287 273 278 268 273 272 278 281 279 277 275 274 277 280 282 277 268 267 267 270 274 276
277 277 284 287 283 272 268 270 276 281 280 282 280 280 278 279 282 280 278 282 284 288 282 279 277 275 279 282 282 275 274 280 282 277 280 278 288 276 275 270 269 271 274 276 279
281 279 281 283 286 278 280 274 270 276 278 278 280 281 281 280 278 277 279 278 283 285 279 280 277 279 277 277 276 278 277 278 274 277 277 281 285 286 278 274 272 274 276 277 279
278 275 279 281 279 275 280 276 270 275 279 278 279 279 280 281 287 280 281 282 282 283 280 281 280 282 280 277 278 279 277 277 278 279 280 281 282 284 282 279 276 274 277 279 280
278 276 278 278 277 277 281 274 269 270 282 281 274 276 279 284 286 285 283 282 282 282 280 279 280 280 281 285 288 281 276 276 282 282 283 282 287 284 282 278 276 277 277 280 282